THY2UC YSSY-WSSS

Flight info

Callsign THY2UC
Flight time N/A
Altitude 28000
Route KADOM A576 PKS G222 KADBA/N0494F300 G222 SAPDA A585 IPKON/N0491F320 A585 PLB G579 SJ
Aircraft B77L/H-SDE1E2E3FGHIJ2J3J4J5M1RWXY/LB1D1

Departure

Time 2026-04-30 10:33
Airport Sydney Kingsford Smith International Airport (YSSY)

Arrival

Time N/A
Airport Singapore Changi Airport (WSSS)
Time Latitude Longitude Altitude Speed Heading
2026-04-30 09:53 -33.93045 151.16768 30 ft 0 kts 257°
2026-04-30 10:17 -33.93038 151.16807 31 ft 3 kts 257°
2026-04-30 10:17 -33.93030 151.16850 30 ft 3 kts 257°
2026-04-30 10:17 -33.93026 151.16872 31 ft 3 kts 252°
2026-04-30 10:18 -33.93018 151.16892 31 ft 3 kts 223°
2026-04-30 10:18 -33.93004 151.16900 30 ft 0 kts 172°
2026-04-30 10:23 -33.93042 151.16907 28 ft 10 kts 169°
2026-04-30 10:23 -33.93108 151.16924 28 ft 10 kts 168°
2026-04-30 10:23 -33.93173 151.16941 29 ft 10 kts 167°
2026-04-30 10:23 -33.93254 151.16966 28 ft 13 kts 157°
2026-04-30 10:24 -33.93320 151.17040 30 ft 13 kts 142°
2026-04-30 10:24 -33.93406 151.17078 26 ft 13 kts 167°
2026-04-30 10:24 -33.93500 151.17103 27 ft 16 kts 168°
2026-04-30 10:24 -33.93640 151.17139 27 ft 25 kts 167°
2026-04-30 10:25 -33.93842 151.17193 20 ft 35 kts 167°
2026-04-30 10:25 -33.93995 151.17230 27 ft 18 kts 168°
2026-04-30 10:25 -33.94123 151.17263 26 ft 21 kts 167°
2026-04-30 10:25 -33.94291 151.17308 28 ft 27 kts 167°
2026-04-30 10:26 -33.94474 151.17356 30 ft 27 kts 168°
2026-04-30 10:26 -33.94656 151.17404 31 ft 27 kts 167°
2026-04-30 10:26 -33.94839 151.17452 28 ft 27 kts 168°
2026-04-30 10:26 -33.95021 151.17498 27 ft 27 kts 168°
2026-04-30 10:27 -33.95202 151.17545 24 ft 27 kts 168°
2026-04-30 10:27 -33.95385 151.17592 25 ft 27 kts 168°
2026-04-30 10:27 -33.95567 151.17639 28 ft 27 kts 168°
2026-04-30 10:27 -33.95750 151.17687 29 ft 27 kts 167°
2026-04-30 10:28 -33.95932 151.17735 27 ft 27 kts 168°
2026-04-30 10:28 -33.96115 151.17782 29 ft 27 kts 168°
2026-04-30 10:28 -33.96291 151.17828 27 ft 16 kts 167°
2026-04-30 10:28 -33.96376 151.17850 28 ft 11 kts 168°
2026-04-30 10:29 -33.96435 151.17897 28 ft 8 kts 115°
2026-04-30 10:29 -33.96438 151.17907 28 ft 1 kts 103°
2026-04-30 10:29 -33.96436 151.17913 28 ft 0 kts 84°
2026-04-30 10:30 -33.96433 151.17939 28 ft 8 kts 82°
2026-04-30 10:31 -33.96423 151.18017 28 ft 7 kts 79°
2026-04-30 10:31 -33.96392 151.18053 27 ft 7 kts
2026-04-30 10:31 -33.96375 151.18049 28 ft 0 kts 348°
2026-04-30 10:32 -33.96264 151.18021 27 ft 48 kts 348°
2026-04-30 10:32 -33.95661 151.17866 26 ft 127 kts 348°
2026-04-30 10:32 -33.94562 151.17578 40 ft 192 kts 349°
2026-04-30 10:32 -33.93228 151.17249 600 ft 195 kts 351°
2026-04-30 10:33 -33.91905 151.16810 1237 ft 206 kts 335°
2026-04-30 10:33 -33.90904 151.15531 1775 ft 220 kts 303°
2026-04-30 10:33 -33.90149 151.13819 2053 ft 239 kts 302°
2026-04-30 10:33 -33.89302 151.12050 2488 ft 252 kts 304°
2026-04-30 10:34 -33.88359 151.10205 2932 ft 263 kts 305°
2026-04-30 10:34 -33.87367 151.08318 3520 ft 270 kts 305°
2026-04-30 10:34 -33.86344 151.06396 4168 ft 274 kts 305°
2026-04-30 10:34 -33.85306 151.04460 4876 ft 277 kts 304°
2026-04-30 10:35 -33.84257 151.02508 5563 ft 279 kts 303°
2026-04-30 10:35 -33.83418 151.00407 6113 ft 282 kts 284°
2026-04-30 10:35 -33.83033 150.98079 6661 ft 286 kts 281°
2026-04-30 10:35 -33.82661 150.95720 7311 ft 288 kts 281°
2026-04-30 10:36 -33.82274 150.93349 7983 ft 290 kts 282°
2026-04-30 10:36 -33.81876 150.90963 8615 ft 292 kts 282°
2026-04-30 10:36 -33.81468 150.88560 9223 ft 295 kts 283°
2026-04-30 10:36 -33.81051 150.86126 9828 ft 299 kts 283°
2026-04-30 10:37 -33.80624 150.83659 10378 ft 306 kts 283°
2026-04-30 10:37 -33.80173 150.81075 10538 ft 326 kts 283°
2026-04-30 10:37 -33.79692 150.78335 10706 ft 345 kts 283°
2026-04-30 10:37 -33.79181 150.75428 10871 ft 365 kts 283°
2026-04-30 10:38 -33.78646 150.72388 11232 ft 378 kts 283°
2026-04-30 10:38 -33.78097 150.69269 11776 ft 384 kts 283°
2026-04-30 10:38 -33.77540 150.66111 12441 ft 387 kts 283°
2026-04-30 10:38 -33.76979 150.62934 13179 ft 389 kts 283°
2026-04-30 10:39 -33.76415 150.59745 13865 ft 391 kts 283°
2026-04-30 10:39 -33.75845 150.56535 14484 ft 394 kts 283°
2026-04-30 10:39 -33.75269 150.53298 15029 ft 399 kts 283°
2026-04-30 10:39 -33.74686 150.50023 15580 ft 403 kts 283°
2026-04-30 10:40 -33.74096 150.46717 16129 ft 407 kts 283°
2026-04-30 10:40 -33.73501 150.43382 16657 ft 411 kts 283°
2026-04-30 10:40 -33.72896 150.40008 17192 ft 415 kts 283°
2026-04-30 10:40 -33.72286 150.36601 17744 ft 419 kts 282°
2026-04-30 10:41 -33.71669 150.33166 18260 ft 423 kts 282°
2026-04-30 10:41 -33.71041 150.29696 18733 ft 428 kts 283°
2026-04-30 10:41 -33.70265 150.26229 19175 ft 432 kts 288°
2026-04-30 10:41 -33.69338 150.22792 19670 ft 434 kts 289°
2026-04-30 10:42 -33.68354 150.19354 20165 ft 436 kts 289°
2026-04-30 10:42 -33.67361 150.15911 20691 ft 437 kts 289°
2026-04-30 10:42 -33.66369 150.12443 21111 ft 442 kts 289°
2026-04-30 10:42 -33.65384 150.08940 21600 ft 443 kts 289°
2026-04-30 10:43 -33.64405 150.05417 21984 ft 448 kts 288°
2026-04-30 10:43 -33.63425 150.01855 22482 ft 450 kts 288°
2026-04-30 10:43 -33.62442 149.98276 22858 ft 454 kts 288°
2026-04-30 10:43 -33.61453 149.94663 23342 ft 456 kts 288°
2026-04-30 10:44 -33.60475 149.91097 23852 ft 457 kts 288°
2026-04-30 10:44 -33.59463 149.87414 24195 ft 461 kts 288°
2026-04-30 10:44 -33.58457 149.83753 24605 ft 462 kts 288°
2026-04-30 10:44 -33.57462 149.80142 25008 ft 463 kts 288°
2026-04-30 10:45 -33.56448 149.76468 25394 ft 465 kts 288°
2026-04-30 10:45 -33.55427 149.72775 25742 ft 468 kts 288°
2026-04-30 10:45 -33.54398 149.69060 26091 ft 471 kts 288°
2026-04-30 10:45 -33.53364 149.65329 26449 ft 473 kts 288°
2026-04-30 10:46 -33.52323 149.61578 26801 ft 475 kts 288°
2026-04-30 10:46 -33.51278 149.57816 27158 ft 477 kts 288°
2026-04-30 10:46 -33.50226 149.54035 27522 ft 479 kts 288°
2026-04-30 10:46 -33.49169 149.50243 27854 ft 482 kts 288°
2026-04-30 10:47 -33.48450 149.47664 28065 ft 483 kts 288°
2026-04-30 10:47 -33.47383 149.43842 28362 ft 487 kts 288°
2026-04-30 10:47 -33.45220 149.36118 28481 ft 497 kts 288°
2026-04-30 10:48 -33.44108 149.32134 28766 ft 499 kts 288°
2026-04-30 10:48 -33.42999 149.28203 29174 ft 498 kts 288°
2026-04-30 10:48 -33.41913 149.24334 29683 ft 495 kts 288°
2026-04-30 10:48 -33.40820 149.20445 30196 ft 492 kts 288°
2026-04-30 10:49 -33.39709 149.16513 30392 ft 494 kts 288°
2026-04-30 10:49 -33.38608 149.12617 30424 ft 495 kts 288°
2026-04-30 10:49 -33.36415 149.04871 30418 ft 494 kts 288°
2026-04-30 10:50 -33.34215 148.97107 30416 ft 493 kts 288°
2026-04-30 10:50 -33.32010 148.89360 30405 ft 492 kts 288°
2026-04-30 10:51 -33.29803 148.81620 30397 ft 492 kts 288°